When you browse on this site, cookies collect data to enhance your experience and personalize the content and advertising you see.
Visit our Privacy Policy to learn more. By continuing to use the site, you agree to this use of cookies and data.

Meteo pe oră la Kofu

Astăzi, 3 August, Luni

Timp Temperatura Precipitaţii Vânt Presiune Umiditate
00:00 +18°C° 0 mm 0 m/s 673 mmHg 94%
01:00 +18°C° 0.1 mm 0 m/s 672 mmHg 94%
02:00 +17°C° 0.1 mm 0 m/s 672 mmHg 94%
03:00 +17°C° 0 mm 0 m/s 672 mmHg 94%
04:00 +18°C° 0 mm 0 m/s 672 mmHg 94%
05:00 +18°C° 0 mm 0 m/s 672 mmHg 94%
06:00 +18°C° 0 mm 0 m/s 673 mmHg 93%
07:00 +20°C° 0.1 mm 0 m/s 673 mmHg 88%
08:00 +24°C° 0.1 mm 1 m/s 674 mmHg 82%
09:00 +25°C° 0 mm 1 m/s 674 mmHg 75%
10:00 +26°C° 0.9 mm 1 m/s 674 mmHg 76%
11:00 +26°C° 0.9 mm 1 m/s 674 mmHg 76%
12:00 +27°C° 0.9 mm 1 m/s 674 mmHg 77%
13:00 +26°C° 1.9 mm 1 m/s 674 mmHg 80%
14:00 +26°C° 1.9 mm 1 m/s 673 mmHg 82%
15:00 +26°C° 0 mm 1 m/s 673 mmHg 83%
16:00 +25°C° 1.6 mm 1 m/s 673 mmHg 86%
17:00 +24°C° 1.6 mm 1 m/s 673 mmHg 90%
18:00 +23°C° 1.6 mm 1 m/s 673 mmHg 93%
19:00 +22°C° 1 mm 1 m/s 673 mmHg 93%
20:00 +21°C° 1 mm 1 m/s 673 mmHg 93%
21:00 +19°C° 1 mm 0 m/s 673 mmHg 94%
22:00 +19°C° 0.1 mm 0 m/s 673 mmHg 93%
23:00 +18°C° 0.1 mm 0 m/s 673 mmHg 93%

Mâine, 4 August, Marţi

Timp Temperatura Precipitaţii Vânt Presiune Umiditate
00:00 +18°C° 0.1 mm 0 m/s 673 mmHg 92%
01:00 +18°C° 0 mm 0 m/s 672 mmHg 92%
02:00 +18°C° 0 mm 0 m/s 672 mmHg 91%
03:00 +18°C° 0 mm 0 m/s 672 mmHg 91%
04:00 +18°C° 0 mm 0 m/s 673 mmHg 91%
05:00 +18°C° 0 mm 0 m/s 673 mmHg 90%
06:00 +19°C° 0 mm 0 m/s 674 mmHg 90%
07:00 +21°C° 0 mm 0 m/s 674 mmHg 82%
08:00 +23°C° 0 mm 0 m/s 675 mmHg 73%
09:00 +25°C° 0 mm 0 m/s 675 mmHg 65%
10:00 +28°C° 0.2 mm 1 m/s 675 mmHg 64%
11:00 +29°C° 0.2 mm 1 m/s 675 mmHg 63%
12:00 +29°C° 0.2 mm 1 m/s 676 mmHg 62%
13:00 +28°C° 1 mm 2 m/s 675 mmHg 66%
14:00 +28°C° 1 mm 2 m/s 675 mmHg 71%
15:00 +27°C° 1 mm 2 m/s 674 mmHg 75%
16:00 +26°C° 0.4 mm 2 m/s 674 mmHg 79%
17:00 +25°C° 0.4 mm 1 m/s 674 mmHg 83%
18:00 +24°C° 0.4 mm 1 m/s 674 mmHg 88%
19:00 +23°C° 0.2 mm 1 m/s 674 mmHg 88%
20:00 +22°C° 0.2 mm 1 m/s 674 mmHg 89%
21:00 +21°C° 0.2 mm 1 m/s 674 mmHg 90%
22:00 +19°C° 0.1 mm 0 m/s 674 mmHg 90%
23:00 +19°C° 0.1 mm 0 m/s 674 mmHg 89%

Poimâine, 5 August, Miercuri

Timp Temperatura Precipitaţii Vânt Presiune Umiditate
00:00 +18°C° 0.1 mm 0 m/s 674 mmHg 88%
01:00 +18°C° 0 mm 0 m/s 674 mmHg 88%
02:00 +20°C° 0 mm 1 m/s 674 mmHg 88%
03:00 +20°C° 0 mm 1 m/s 674 mmHg 89%
04:00 +20°C° 0 mm 1 m/s 675 mmHg 88%
05:00 +21°C° 0 mm 1 m/s 675 mmHg 88%
06:00 +21°C° 0 mm 1 m/s 675 mmHg 87%
07:00 +23°C° 0 mm 1 m/s 676 mmHg 79%
08:00 +26°C° 0 mm 1 m/s 676 mmHg 71%
09:00 +28°C° 0 mm 1 m/s 677 mmHg 63%
10:00 +28°C° 0.5 mm 1 m/s 677 mmHg 65%
11:00 +28°C° 0.5 mm 1 m/s 677 mmHg 67%
12:00 +29°C° 0.5 mm 1 m/s 677 mmHg 69%
13:00 +28°C° 0.9 mm 1 m/s 676 mmHg 70%
14:00 +28°C° 0.9 mm 1 m/s 676 mmHg 71%
15:00 +28°C° 0.9 mm 1 m/s 675 mmHg 72%
16:00 +27°C° 0.7 mm 1 m/s 675 mmHg 78%
17:00 +26°C° 0.7 mm 1 m/s 675 mmHg 83%
18:00 +24°C° 0.7 mm 1 m/s 675 mmHg 88%
19:00 +23°C° 0.6 mm 1 m/s 675 mmHg 89%
20:00 +22°C° 0.6 mm 1 m/s 675 mmHg 89%
21:00 +21°C° 0.6 mm 1 m/s 675 mmHg 90%
22:00 +19°C° 0.1 mm 0 m/s 675 mmHg 89%
23:00 +19°C° 0.1 mm 0 m/s 675 mmHg 89%

6 August, Joi

Timp Temperatura Precipitaţii Vânt Presiune Umiditate
00:00 +18°C° 0.1 mm 0 m/s 675 mmHg 89%
01:00 +18°C° 0 mm 0 m/s 674 mmHg 89%
02:00 +18°C° 0 mm 0 m/s 674 mmHg 88%
03:00 +20°C° 0 mm 1 m/s 674 mmHg 88%
04:00 +20°C° 0 mm 1 m/s 674 mmHg 88%
05:00 +19°C° 0 mm 0 m/s 674 mmHg 88%
06:00 +19°C° 0 mm 0 m/s 674 mmHg 88%
07:00 +23°C° 0 mm 1 m/s 675 mmHg 79%
08:00 +25°C° 0 mm 1 m/s 675 mmHg 70%
09:00 +28°C° 0 mm 1 m/s 675 mmHg 62%
10:00 +28°C° 0.1 mm 1 m/s 675 mmHg 60%
11:00 +29°C° 0.1 mm 2 m/s 675 mmHg 58%
12:00 +29°C° 0.1 mm 2 m/s 675 mmHg 56%
13:00 +29°C° 0.6 mm 2 m/s 675 mmHg 62%
14:00 +28°C° 0.6 mm 2 m/s 674 mmHg 67%
15:00 +27°C° 0.6 mm 2 m/s 673 mmHg 72%
16:00 +26°C° 0.2 mm 2 m/s 673 mmHg 77%
17:00 +25°C° 0.2 mm 2 m/s 673 mmHg 82%
18:00 +24°C° 0.2 mm 2 m/s 673 mmHg 87%
19:00 +23°C° 0.1 mm 1 m/s 673 mmHg 89%
20:00 +22°C° 0.1 mm 1 m/s 672 mmHg 91%
21:00 +21°C° 0.1 mm 1 m/s 672 mmHg 93%
22:00 +20°C° 0 mm 1 m/s 672 mmHg 92%
23:00 +20°C° 0 mm 1 m/s 672 mmHg 91%

7 August, Vineri

Timp Temperatura Precipitaţii Vânt Presiune Umiditate
00:00 +20°C° 0 mm 1 m/s 671 mmHg 90%
01:00 +19°C° 0 mm 1 m/s 671 mmHg 89%
02:00 +19°C° 0 mm 1 m/s 671 mmHg 88%
03:00 +19°C° 0 mm 1 m/s 670 mmHg 86%
04:00 +19°C° 0 mm 1 m/s 670 mmHg 87%
05:00 +19°C° 0 mm 1 m/s 670 mmHg 88%
06:00 +20°C° 0 mm 1 m/s 670 mmHg 89%
07:00 +22°C° 0 mm 1 m/s 671 mmHg 80%
08:00 +24°C° 0 mm 1 m/s 671 mmHg 71%
09:00 +26°C° 0 mm 2 m/s 672 mmHg 61%
10:00 +27°C° 0 mm 2 m/s 672 mmHg 59%
11:00 +28°C° 0 mm 2 m/s 672 mmHg 57%
12:00 +29°C° 0 mm 3 m/s 672 mmHg 54%
13:00 +29°C° 0.1 mm 3 m/s 671 mmHg 57%
14:00 +28°C° 0.1 mm 3 m/s 671 mmHg 60%
15:00 +28°C° 0.1 mm 3 m/s 671 mmHg 63%
16:00 +27°C° 0.1 mm 3 m/s 670 mmHg 70%
17:00 +25°C° 0.1 mm 2 m/s 670 mmHg 77%
18:00 +24°C° 0.1 mm 2 m/s 670 mmHg 85%
19:00 +23°C° 0 mm 2 m/s 670 mmHg 87%
20:00 +22°C° 0 mm 1 m/s 670 mmHg 90%
21:00 +21°C° 0 mm 1 m/s 670 mmHg 92%
22:00 +21°C° 0 mm 1 m/s 669 mmHg 92%
23:00 +20°C° 0 mm 1 m/s 669 mmHg 91%

8 August, Sâmbătă

Timp Temperatura Precipitaţii Vânt Presiune Umiditate
00:00 +20°C° 0 mm 1 m/s 669 mmHg 90%
01:00 +20°C° 0 mm 1 m/s 669 mmHg 90%
02:00 +20°C° 0 mm 1 m/s 669 mmHg 90%
03:00 +20°C° 0 mm 1 m/s 668 mmHg 90%
04:00 +20°C° 0 mm 1 m/s 669 mmHg 90%
05:00 +20°C° 0 mm 1 m/s 669 mmHg 90%
06:00 +21°C° 0 mm 1 m/s 669 mmHg 89%
07:00 +22°C° 0 mm 1 m/s 669 mmHg 81%
08:00 +24°C° 0 mm 2 m/s 670 mmHg 73%
09:00 +26°C° 0 mm 2 m/s 670 mmHg 65%
10:00 +26°C° 0.1 mm 3 m/s 670 mmHg 63%
11:00 +27°C° 0.1 mm 3 m/s 670 mmHg 61%
12:00 +28°C° 0.1 mm 3 m/s 670 mmHg 59%
13:00 +27°C° 0.2 mm 3 m/s 670 mmHg 62%
14:00 +27°C° 0.2 mm 3 m/s 670 mmHg 64%
15:00 +27°C° 0.2 mm 3 m/s 669 mmHg 66%
16:00 +26°C° 0.2 mm 3 m/s 669 mmHg 73%
17:00 +24°C° 0.2 mm 3 m/s 669 mmHg 81%
18:00 +23°C° 0.2 mm 2 m/s 669 mmHg 88%
19:00 +21°C° 0.2 mm 2 m/s 669 mmHg 90%
20:00 +21°C° 0.2 mm 2 m/s 669 mmHg 92%
21:00 +20°C° 0.2 mm 2 m/s 669 mmHg 94%
22:00 +20°C° 0.2 mm 2 m/s 669 mmHg 94%
23:00 +20°C° 0.2 mm 2 m/s 669 mmHg 94%
Arată mai mult